FENGYUN 1C DEB

Satellite information

Favourite Embed

Satellite Type and Status

DEBRISIN ORBIT

Key statistics

Satellite FENGYUN 1C DEB at a glance.

Uptime

9715

Days in orbit

Revolutions

≈ 14.4

Per day

Orbit

SSO

Sun Synchronous Orbit

Inclination

98.6

Latest

Satellite identification and parameters

Extended collection of information and parameters for FENGYUN 1C DEB.

Object identification

Identified? True

Debris? True

Object name: FENGYUN 1C DEB

International designator: 1999-025BUU

Object number (NORAD): 31456

Object ID (CCSDS): 31456

Country: PEOPLES REPUBLIC OF CHINA (PRC)

Current information (Y/N): Y

RCS size: SMALL

Orbital parameters

Period: 99.834 minutes

Inclination: 98.5768 deg

SMA: 7128.737 km

Apoapsis: 798.785 km

Periapsis: 702.42 km

RAAN: 88.4184 deg

Eccentricy: 0.00675893

Argument of periapsis: 316.4255 deg

Mean anomaly: 43.1607 deg

Mean motion: 14.42393785 rev/day

Mean motion (dot): 0.00004413 rev/day2

B* drag term: 0.0013116158 1/REarth

Two-line elements (TLE)

Creation date: Dec. 12, 2025, 10:14 a.m.

Reference frame: TEME

Reference center: EARTH

Epoch: Dec. 12, 2025, 1:50 a.m. UTC

TLE line 0: 0 FENGYUN 1C DEB

TLE line 1: 1 31456U 99025BUU 25346.07652838 .00004413 00000-0 13116-2 0 9999

TLE line 2: 2 31456 98.5768 88.4184 0067589 316.4255 43.1607 14.42393785974577

Live tracking on map

Real-time ground track for satellite FENGYUN 1C DEB.

In-orbit conjunctions

A list of the most updated potential collisions computed for object FENGYUN 1C DEB.

Target Orbit TCA Probability of collision Miss distance Type
CZ-6A DEB LEO 2025-04-06 11:41:04 0.0002459626 53.0 (m) DEBRIS
SL-14 R/B LEO 2025-03-17 09:54:35 0.0001353569 619.0 (m) ROCKET BODY
FENGYUN 1C DEB SSO 2024-06-17 20:18:49 0.001195877 26.0 (m) DEBRIS

Associated space launch

Chinese polar orbiting meteorological satellite

FENGYUN 1C DEB was lifted into orbit during the mission ‘Long March 4B | Feng Yun 1C’, on board a Long March 4B space rocket.

The launch took place on May 10, 1999, 1:33 a.m. from Launch Complex 7.

For more information about the launch, click the button.

Launch to space Long March 4B | Feng Yun 1C
Long March 4B | Feng Yun 1C

Agency: N/A

Status: Launch Successful

Launch date: May 10, 1999, 1:33 a.m. UTC

Rocket: Long March 4B

Launch pad: Launch Complex 7

Location: Taiyuan Satellite Launch Center, People's Republic of China

...

Latest news about this satellite

There are no fresh news available about this satellite. Check back as we update our databases every day.


Newsletter sign-up

Weekly statistics, charts and insights to help you stay on top of the space industry.